Location: ????????
(37.6846°N, 24.0673°E)
Time: 12:04:28
(UTC+00:00)

Cosmos 1674 Rocket - Pass Details

Date: 14 July 2020
Orbit: 602 x 631 km, 82.5° (Epoch: 09 August)

Event Time Altitude Azimuth Distance (km) Brightness Sun altitude
Rises 01:06:31 0° 353° (N) 2,876 7.7 -20.2°
Reaches altitude 10° 01:08:45 10° 355° (N) 1,964 6.7 -19.9°
Maximum altitude 01:13:06 82° 84° (E) 615 3.5 -19.3°
Enters shadow 01:15:15 29° 169° (SSE) 1,111 4.5 -19.1°
